Location: Kunchanapalle
(16.4623°N, 80.6176°E)
Time: 13:41:50
(UTC+00:00)

Cosmos 883 Rocket - Pass Details

Date: 13 August 2020
Orbit: 950 x 995 km, 83.0° (Epoch: 24 September)

Event Time Altitude Azimuth Distance (km) Brightness Sun altitude
Exits shadow 22:24:24 71° 239° (WSW) 1,022 4.3 -27.1°
Maximum altitude 22:24:50 74° 274° (W) 1,007 4.3 -27.0°
Drops below altitude 10° 22:31:04 10° 359° (N) 2,725 7.1 -25.7°
Sets 22:33:36 0° 1° (N) 3,680 7.9 -25.1°
